Location: Bel Air
(38.8632°N, 77.1766°W)
Time: 04:14:35
(UTC+00:00)

Daily predictions for brighter satellites

Satellite Brightness Start Highest point End
(mag) Time Altitude Azimuth Time Altitude Azimuth Time Altitude Azimuth
Cosmos 372 Rocket 3.9 00:00:56 10° S 00:06:09 76° ESE 00:11:23 10° NNE
Cosmos 2263 Rocket 3.7 00:02:40 10° SW 00:07:49 39° WNW 00:13:03 10° N
Cosmos 1464 Rocket 4.0 00:02:39 10° S 00:08:38 60° E 00:14:40 10° NNE
Cosmos 1844 4.3 00:04:08 10° SSE 00:09:13 34° ESE 00:14:17 10° NE
Cosmos 1025 Rocket 3.6 00:07:23 10° N 00:11:29 37° ENE 00:14:53 14° SE
USA 186 3.0 00:11:48 22° ENE 00:11:59 22° ENE 00:14:34 10° NNE
BREEZE-M DEB (TANK) 3.0 00:09:16 10° SW 00:12:02 76° SE 00:19:35 10° NE
Cosmos 1844 Rocket 2.8 00:08:40 10° S 00:13:57 47° ESE 00:19:17 10° NE
Cosmos 1867 3.6 00:11:13 10° NNW 00:16:41 68° ENE 00:21:01 16° SE
ISS -1.9 00:16:28 10° W 00:19:26 28° NNW 00:22:25 10° NNE
Cosmos 2151 Rocket 3.7 00:17:09 10° S 00:21:27 52° E 00:25:49 10° NNE
SJ-11-01 4.4 00:19:15 10° S 00:23:58 81° WSW 00:28:41 10° NNW
USA 234 3.7 00:18:31 10° ENE 00:24:34 39° SE 00:30:35 10° SSW
Cosmos 2150 Rocket 4.0 00:20:31 10° S 00:25:49 70° ESE 00:31:14 10° NNE
STPSAT 2 (USA 217) 4.5 00:21:28 10° NNW 00:25:59 81° ENE 00:29:35 16° SSE
IRIS 4.0 00:26:04 10° WSW 00:29:46 61° SSE 00:30:10 53° ESE
Cosmos 1125 Rocket 3.7 00:25:05 10° S 00:30:10 49° ESE 00:35:17 10° NNE
Cosmos 1943 4.2 00:25:21 10° NW 00:30:45 48° WSW 00:36:09 10° S
CZ-2C R/B 1.5 00:28:33 10° WSW 00:32:00 42° S 00:32:43 36° SSE
DMSP B5D2-2 4.2 00:32:30 10° NNE 00:37:37 48° E 00:42:42 10° S
Exosat Rocket 3.7 00:32:21 10° S 00:38:11 54° ESE 00:43:05 10° NNE
NOSS 3-4 (A) 3.8 00:34:31 10° S 00:39:45 35° ESE 00:42:16 25° ENE
NOSS 3-4 (C) 3.8 00:34:39 10° S 00:39:52 34° ESE 00:41:56 27° ENE
Cosmos 468 4.5 00:45:34 10° NNW 00:50:54 68° ENE 00:52:48 39° SE
Meteor 1-15 Rocket 4.1 00:47:32 10° S 00:53:06 75° E 00:58:49 10° NNE
Cosmos 1674 3.4 00:51:10 10° N 00:54:01 41° NNE 00:54:01 41° NNE
Resurs 01 Rocket 3.4 00:59:15 19° NE 00:59:15 19° NE 01:01:03 10° NNE
H-2A R/B 3.2 00:53:16 10° SSW 00:57:55 41° W 01:02:41 10° NNW
IRS-1A Rocket 4.3 00:55:43 24° SSE 00:59:27 84° ENE 01:05:21 10° NNW
Cosmos 1048 Rocket 3.9 00:56:13 10° NNW 01:01:34 80° ENE 01:03:09 47° SSE
ATLAS 2AS CENTAUR R/B 3.1 00:54:35 10° S 01:02:08 53° ESE 01:09:48 10° NE
Nadezhda 4 Rocket 3.9 00:57:04 10° N 01:03:13 87° W 01:07:55 18° S
BREEZE-M TANK 3.7 00:53:59 10° W 01:03:40 56° NNW 01:05:14 34° NE
Cosmos 2034 Rocket 4.4 01:00:48 10° SSW 01:07:06 66° W 01:13:26 10° N
CENTAUR R/B 3.4 01:03:27 10° NNW 01:11:32 58° NE 01:14:15 43° ESE
Okean 1 Rocket 3.1 01:16:18 79° NNW 01:16:18 79° NNW 01:20:34 10° N
Ariane Rocket 3.4 01:16:43 34° SSW 01:18:49 61° WSW 01:23:52 10° NNW
ATLAS 3B R/B 4.0 01:13:57 10° NNW 01:19:22 24° NE 01:20:03 24° NE
OBJECT-B 3.6 01:23:19 14° N 01:23:19 14° N 01:23:49 10° N
Cosmos 2082 Rocket 4.4 01:22:17 10° NNE 01:23:32 12° NNE 01:23:32 12° NNE
Cosmos 494 Rocket 3.9 01:21:45 10° NNW 01:26:49 82° N 01:26:49 82° N
USA 238 DEB 3.8 01:19:58 10° NW 01:27:18 87° WSW 01:29:18 54° SSE
USA 238 3.8 01:20:04 10° NW 01:27:24 87° WSW 01:29:22 54° SSE
Meteor 2-5 Rocket 3.6 01:22:18 10° N 01:27:52 77° ENE 01:27:52 77° ENE
Meteor 1-22 Rocket 4.2 01:32:16 73° NE 01:32:16 73° NE 01:37:49 10° NNE
SJ-6B 4.3 01:33:13 33° WNW 01:33:13 33° WNW 01:35:58 10° NNW
CZ-2C R/B 3.8 01:29:29 10° N 01:34:44 44° WNW 01:40:01 10° SW
Cosmos 1634 Rocket 3.9 01:37:16 60° SSW 01:38:29 84° W 01:44:42 10° N
COSMOS 2406 4.4 01:34:39 10° N 01:38:13 31° NNE 01:38:13 31° NNE
SPOT 3 Rocket 4.0 01:44:55 57° NNW 01:44:55 57° NNW 01:49:01 10° NNW
Meteor 1-24 Rocket 4.1 01:40:12 10° N 01:44:32 56° N 01:44:32 56° N
NOSS 3-2 (A) 4.5 01:46:34 10° NW 01:54:12 58° WSW 01:56:30 45° SSW
USA 234 3.7 02:04:41 32° NNE 02:07:41 58° NW 02:14:03 10° WSW
Cosmos 2026 Rocket 4.4 02:02:25 10° NNW 02:08:36 58° W 02:08:36 58° W
Cosmos 1833 Rocket 4.4 02:19:21 10° NNW 02:21:52 27° N 02:21:52 27° N
Resurs 01 Rocket 4.5 02:36:49 15° NW 02:36:49 15° NW 02:37:42 10° NW
ATLAS 2AS CENTAUR R/B 4.1 02:46:04 10° WSW 02:53:24 39° NW 03:00:43 10° NNE
CENTAUR R/B 4.2 02:54:36 10° NW 03:01:27 37° WSW 03:01:27 37° WSW
ATLAS 3B R/B 4.1 03:03:50 10° NW 03:07:18 33° NW 03:07:18 33° NW
Cosmos 1980 Rocket 4.3 07:10:59 21° ENE 07:10:59 21° ENE 07:13:19 10° NE
ADEOS II 4.2 07:26:30 10° NNE 07:28:11 21° NNE 07:28:11 21° NNE
IDEFIX/ARIANE 42P 4.2 07:35:50 10° NNE 07:39:15 30° ENE 07:39:15 30° ENE
SJ 16-02 4.3 07:48:59 10° NNE 07:51:18 14° ENE 07:53:36 10° E
Lacrosse 5 3.6 08:06:13 26° N 08:06:13 26° N 08:08:53 10° NNE
Cosmos 2278 4.4 08:08:14 47° N 08:08:14 47° N 08:12:17 10° NNE
X-37B 4.1 08:18:53 12° ENE 08:18:53 12° ENE 08:19:12 10° ENE
NOSS 3-3 (A) 3.8 08:19:03 75° E 08:19:03 75° E 08:25:06 10° NE
NOSS 3-3 (C) 3.8 08:19:13 74° E 08:19:13 74° E 08:25:11 10° NE
USA 267 3.5 08:15:51 10° NE 08:22:08 51° NW 08:22:28 51° NW
Spot 4 Rocket 4.1 08:30:40 10° N 08:35:06 64° NNW 08:35:06 64° NNW
Cosmos 921 Rocket 3.7 08:43:18 45° N 08:43:18 45° N 08:46:16 10° NNE
Cosmos 2360 Rocket 4.4 08:38:17 10° SSE 08:42:29 22° E 08:46:42 10° NE
Cosmos 1812 3.5 08:46:42 48° NNE 08:46:42 48° NNE 08:49:37 10° NNE
MSX 3.7 08:40:00 10° NNE 08:45:48 83° WNW 08:47:06 56° SSW
CZ-4C R/B 4.5 08:47:18 33° NNE 08:47:18 33° NNE 08:49:30 10° N
Cosmos 1697 Rocket 4.3 08:48:35 20° NW 08:48:35 20° NW 08:51:42 10° N
Timation 1 Rocket 4.2 08:42:09 10° NNW 08:48:05 67° WSW 08:54:02 10° SSE
Cosmos 1500 4.3 08:45:02 10° N 08:47:33 38° NNE 08:47:33 38° NNE
Cosmos 1980 Rocket 3.0 08:52:46 35° NW 08:52:46 35° NW 08:57:31 10° N
Cosmos 1666 4.5 08:50:56 10° NNE 08:54:23 32° ENE 08:57:47 10° SE
USA 234 3.5 08:48:27 10° ESE 08:54:54 68° NE 09:01:23 10° NW
Cosmos 2322 Rocket 2.6 08:55:32 22° S 08:59:04 60° ESE 09:04:41 10° NNE
BREEZE-M DEB (TANK) 3.4 08:55:57 39° WSW 08:59:07 88° SSE 09:02:49 10° ENE
BREEZE-M DEB (TANK) 3.9 09:01:04 31° NNW 09:01:04 31° NNW 09:05:42 10° NE
Cosmos 2263 Rocket 2.3 08:56:39 10° NNW 09:02:19 78° ENE 09:08:00 10° SSE
Meteor 2-9 4.5 09:00:06 10° NNW 09:05:33 70° W 09:10:53 10° S
IRIDIUM 103 4.3 09:02:07 10° N 09:07:21 87° E 09:12:34 10° S
SL-16 R/B 2.1 09:05:31 31° SSW 09:08:21 88° ESE 09:14:03 10° NNE
Cosmos 2228 Rocket 3.8 09:09:43 36° NW 09:09:43 36° NW 09:12:59 10° N
SL-4 R/B 2.2 09:08:19 58° SW 09:09:12 86° SE 09:13:58 10° NE
FALCON 9 DEB 3.1 09:10:01 75° NE 09:10:01 75° NE 09:13:12 10° NE
ADEOS II 4.3 09:08:38 10° NW 09:09:07 11° NW 09:09:07 11° NW
Cosmos 1934 Rocket 4.3 09:06:19 10° NNW 09:11:54 40° W 09:12:49 38° WSW
ARIANE 5 R/B 3.9 09:09:45 10° NNW 09:12:41 21° NW 09:12:41 21° NW
Meteor 1-4 Rocket 2.6 09:16:31 54° NW 09:16:31 54° NW 09:19:31 10° N
Cosmos 841 Rocket 4.4 09:11:07 10° S 09:16:07 49° ESE 09:21:10 10° NNE
Cosmos 44 Rocket 4.2 09:12:56 15° S 09:16:32 45° ESE 09:21:06 10° NE
IDEFIX/ARIANE 42P 3.6 09:15:42 10° N 09:20:03 27° WNW 09:20:03 27° WNW
CZ-2C R/B 2.4 09:15:03 10° N 09:20:13 83° WNW 09:24:58 12° SSW
Cosmos 1869 Rocket 3.4 09:16:04 10° NNW 09:20:21 61° W 09:24:36 10° S
Meteor 1-10 Rocket 4.3 09:17:09 25° SSW 09:20:32 60° WNW 09:26:21 10° N
Cosmos 2227 4.1 09:15:51 10° NNW 09:21:28 68° WSW 09:27:01 10° S
ERBS 3.9 09:22:46 23° NNW 09:22:46 23° NNW 09:25:15 10° NNE
CZ-2C R/B 4.1 09:19:34 10° NNW 09:21:45 24° NW 09:21:45 24° NW
Cosmos 1763 Rocket 3.5 09:21:34 26° SSW 09:24:35 69° WNW 09:29:53 10° NNE
IRIDIUM 106 4.3 09:20:29 10° N 09:25:39 63° W 09:30:47 10° S
SJ 16-02 1.4 09:25:55 10° NNW 09:30:12 52° WSW 09:34:27 10° S
Cosmos 967 Rocket 4.5 09:27:03 18° SSW 09:32:01 81° WNW 09:38:28 10° NNE
PSLV R/B 3.6 09:28:32 10° N 09:32:37 51° WNW 09:34:43 26° SW
CZ-4B R/B 2.1 09:31:13 10° SSE 09:34:15 51° ENE 09:37:23 10° N
H-2A R/B 2.4 09:30:40 10° S 09:34:46 41° W 09:38:58 10° NNW
Cosmos 1153 Rocket 4.5 09:28:52 10° NNW 09:35:12 68° W 09:41:26 10° S
Meteor 1-5 Rocket 4.3 09:30:12 10° NNW 09:35:17 47° W 09:40:28 10° SSW
DEBRIS 2.8 09:34:58 26° NW 09:36:24 80° NNE 09:42:42 10° ESE
Cosmos 1570 Rocket 4.1 09:33:04 10° SSW 09:38:21 79° ESE 09:43:43 10° NNE
Cosmos 1605 Rocket 4.4 09:33:19 10° NNW 09:39:11 40° W 09:45:03 10° SSW
Landsat 5 4.4 09:41:23 10° SSW 09:45:22 31° W 09:49:23 10° NW
PAYLOAD A 4.4 09:43:00 10° N 09:47:17 36° WNW 09:50:29 16° SW
ERS-2 2.3 09:44:16 10° S 09:47:47 45° W 09:51:19 10° NNW
Lacrosse 5 4.1 09:46:38 10° NW 09:48:36 12° NNW 09:50:34 10° N
Cosmos 2333 Rocket 4.1 09:43:59 10° SSE 09:48:59 31° ESE 09:54:00 10° NE
Cosmos 1000 Rocket 4.4 09:43:46 10° S 09:49:58 81° W 09:56:10 10° N
Cosmos 990 Rocket 4.1 09:45:57 10° NNW 09:51:01 53° WSW 09:56:04 10° S
Cosmos 540 Rocket 3.4 09:46:09 10° SSW 09:51:17 77° WNW 09:56:29 10° NNE
X-37B 1.4 09:51:10 16° NW 09:53:32 47° NNE 09:56:38 10° E
CZ-4B R/B 4.3 09:50:34 10° NNE 09:53:56 36° E 09:57:15 10° SSE
CZ-4B R/B 4.3 09:51:27 10° NNE 09:55:50 78° ESE 10:00:17 10° S
ALOS 2.2 09:55:22 10° N 10:00:03 84° WNW 10:04:42 10° SSW
Cosmos 1484 Rocket 2.8 09:56:11 10° N 10:00:11 75° WNW 10:04:11 10° SSW
COSMO-SKYMED 1 3.9 09:57:37 10° SE 10:01:43 43° ENE 10:05:51 10° N
NOSS 3-4 (A) 4.2 09:57:09 10° NNW 10:04:19 75° NE 10:12:13 10° SE
NOSS 3-4 (C) 4.2 09:57:15 10° NNW 10:04:25 74° NE 10:12:19 10° SE
Cosmos 1536 3.2 10:03:42 10° NNW 10:07:32 40° W 10:11:20 10° SSW
Cosmos 1725 Rocket 4.3 10:03:21 10° N 10:09:32 71° E 10:15:40 10° SSE
Meteor 1-31 Rocket 2.7 10:07:55 10° N 10:11:44 66° WNW 10:15:32 10° SSW
Cosmos 1437 Rocket 2.6 10:09:08 10° SSW 10:12:54 81° W 10:16:44 10° N
Meteor 1-11 Rocket 4.3 10:09:49 10° NNW 10:14:55 34° W 10:19:54 10° SSW
Cosmos 2100 Rocket 4.2 10:09:48 10° NNW 10:15:57 52° W 10:22:04 10° SSW
Cosmos 1544 3.8 10:12:55 10° N 10:16:28 57° E 10:19:58 10° SSE
PSLV R/B 4.3 10:12:30 10° SSE 10:16:31 68° ENE 10:20:34 10° N
deb Chang Zheng 4 4.2 10:16:32 10° N 10:20:26 34° WNW 10:24:17 10° SW
Cosmos 1802 Rocket 4.0 10:15:12 10° NNW 10:21:19 64° W 10:27:30 10° S
Cosmos 1703 Rocket 4.0 10:17:59 10° S 10:22:15 68° E 10:26:34 10° NNE
SL-8 R/B 4.1 10:18:50 10° WNW 10:23:22 44° SW 10:27:52 10° SSE
Cosmos 1908 Rocket 3.9 10:20:04 10° N 10:24:32 74° E 10:29:00 10° SSE
METEOR-M 4.2 10:20:05 10° N 10:25:21 61° WNW 10:30:36 10° SSW
Cosmos 1515 3.7 10:21:55 10° S 10:25:41 89° W 10:29:30 10° N
Cosmos 2360 Rocket 2.5 10:20:36 10° SW 10:26:04 49° WNW 10:31:34 10° NNE
Cosmos 1898 Rocket 4.4 10:22:19 10° NW 10:26:42 27° W 10:31:06 10° SSW
ADEOS Rocket 3.7 10:20:55 10° SSW 10:27:15 37° W 10:33:03 10° NNW
ATLAS 2AS CENTAUR R/B 2.9 10:20:51 10° NNW 10:28:17 87° ENE 10:35:03 10° SSE
Cosmos 1666 4.4 10:27:35 10° NW 10:29:36 14° W 10:31:37 10° WSW
Cosmos 1459 Rocket 4.3 10:25:20 10° NNW 10:30:58 41° W 10:36:33 10° SSW
